TimeEST,TemperatureF,Dew PointF,Humidity,Sea Level PressureIn,VisibilityMPH,Wind Direction,Wind SpeedMPH,Gust SpeedMPH,PrecipitationIn,Events,Conditions,WindDirDegrees,DateUTC
12:54 AM,10.9,-4.0,51,30.08,10.0,NW,4.6,-,N/A,,Partly Cloudy,310,2014-01-23 05:54:00
1:54 AM,10.9,-4.0,51,30.09,10.0,WNW,3.5,-,N/A,,Clear,300,2014-01-23 06:54:00
2:54 AM,10.0,-4.0,53,30.11,10.0,WNW,3.5,-,N/A,,Clear,300,2014-01-23 07:54:00
3:54 AM,10.9,-4.0,51,30.13,10.0,West,4.6,-,N/A,,Overcast,270,2014-01-23 08:54:00
4:54 AM,10.0,-4.0,53,30.14,10.0,WNW,8.1,-,N/A,,Scattered Clouds,300,2014-01-23 09:54:00
5:54 AM,9.0,-4.0,56,30.16,10.0,WNW,5.8,-,N/A,,Mostly Cloudy,300,2014-01-23 10:54:00
6:54 AM,7.0,-4.0,61,30.19,10.0,West,6.9,-,N/A,,Partly Cloudy,270,2014-01-23 11:54:00
7:54 AM,10.0,-2.0,58,30.19,10.0,WNW,4.6,-,N/A,,Clear,290,2014-01-23 12:54:00
8:54 AM,12.9,-2.0,51,30.20,10.0,West,5.8,-,N/A,,Clear,270,2014-01-23 13:54:00
9:54 AM,16.0,1.0,52,30.22,10.0,West,10.4,-,0.00,,Clear,260,2014-01-23 14:54:00
10:54 AM,18.0,3.0,52,30.22,10.0,West,10.4,-,0.00,,Clear,280,2014-01-23 15:54:00
11:54 AM,19.0,1.9,47,30.21,10.0,West,15.0,-,0.00,,Clear,270,2014-01-23 16:54:00
12:54 PM,21.0,3.0,46,30.19,10.0,West,13.8,21.9,0.00,,Clear,260,2014-01-23 17:54:00
1:54 PM,21.9,3.0,44,30.19,10.0,WNW,16.1,24.2,0.00,,Clear,300,2014-01-23 18:54:00
2:54 PM,21.9,5.0,48,30.20,10.0,West,17.3,20.7,0.00,,Partly Cloudy,270,2014-01-23 19:54:00
3:54 PM,21.9,5.0,48,30.22,10.0,West,18.4,-,N/A,,Scattered Clouds,280,2014-01-23 20:54:00
4:54 PM,19.9,8.1,60,30.25,6.0,WNW,11.5,18.4,0.00,Snow,Light Snow,290,2014-01-23 21:54:00
5:54 PM,19.9,3.9,50,30.27,10.0,West,10.4,-,0.00,,Clear,280,2014-01-23 22:54:00
6:54 PM,19.0,3.9,52,30.30,10.0,West,6.9,-,N/A,,Clear,270,2014-01-23 23:54:00
7:54 PM,18.0,5.0,57,30.32,10.0,West,9.2,-,N/A,,Clear,270,2014-01-24 00:54:00
8:54 PM,18.0,6.1,60,30.33,10.0,West,8.1,-,N/A,,Clear,270,2014-01-24 01:54:00
9:54 PM,17.1,6.1,62,30.35,10.0,WNW,9.2,-,N/A,,Clear,290,2014-01-24 02:54:00
10:54 PM,16.0,3.0,57,30.35,10.0,West,13.8,-,N/A,,Clear,280,2014-01-24 03:54:00
11:54 PM,15.1,1.0,54,30.36,10.0,WNW,9.2,-,N/A,,Clear,300,2014-01-24 04:54:00